Location: Joffre
(52.3362°N, 113.5373°W)
Time: 11:12:18
(UTC+00:00)

N. Korean satellite - Pass Details

Date: 07 December 2021
Orbit: 447 x 491 km, 97.3° (Epoch: 21 January)

Event Time Altitude Azimuth Distance (km) Brightness Sun altitude
Rises 12:46:16 0° 16° (NNE) 2,470 10.3 -23.7°
Reaches altitude 10° 12:48:20 10° 21° (NNE) 1,589 9.3 -23.4°
Maximum altitude 12:51:41 58° 101° (E) 533 7.0 -22.9°
Drops below altitude 10° 12:55:01 10° 181° (S) 1,573 9.2 -22.4°
Sets 12:57:03 0° 186° (S) 2,442 10.2 -22.1°
